Theta_e
307 307 307 307 307 307 309 310 311 309 309 311 314 315 316 316 316 314 318 324 316 310 312 313 312 308 308 308 303 310 308 310 307 303 300 300 300 302 301 303 301 300 298 298 299 295 291 308 305 300 304 307 306 307
306 307 307 308 309 309 309 310 309 309 309 310 313 315 316 315 315 311 315 323 322 312 311 317 315 316 314 313 309 312 310 311 310 307 305 305 300 303 301 297 307 298 304 302 301 297 309 307 306 309 309 307 306 306
306 307 307 307 307 309 309 308 309 309 309 310 313 314 316 316 315 312 317 322 317 312 311 312 309 317 317 315 317 307 311 314 315 317 309 308 302 305 299 300 302 305 308 302 301 303 303 305 309 309 308 308 309 307
306 306 306 306 307 310 308 308 308 309 309 310 312 313 315 315 314 312 317 318 316 311 303 306 314 312 316 314 314 315 315 318 316 312 307 304 302 308 302 304 303 304 305 300 299 303 305 307 308 308 308 308 306 306
305 305 305 306 306 307 309 308 308 309 310 312 313 314 314 314 313 315 318 318 319 310 303 305 313 313 316 315 311 314 315 314 310 306 304 302 306 305 306 305 300 305 302 298 299 305 304 306 308 309 306 304 304 302
305 305 304 305 305 306 307 310 309 309 310 313 314 314 314 313 311 315 310 318 321 317 307 300 311 310 313 312 311 310 311 311 310 307 305 307 310 305 299 298 304 306 307 308 306 308 307 309 309 307 305 304 302 302
304 304 304 304 305 305 306 307 310 310 311 312 313 313 312 310 314 310 306 306 307 316 307 300 302 310 312 311 310 310 312 309 309 307 304 304 305 303 298 296 304 306 307 308 310 309 307 307 303 306 305 303 303 302
304 304 304 304 304 305 306 307 310 310 310 311 310 310 308 306 306 305 307 307 308 308 307 300 301 303 311 306 305 311 307 308 308 305 306 304 305 303 296 305 307 307 308 308 307 308 306 306 305 305 303 302 300 298
304 304 303 304 303 304 304 306 310 310 309 308 308 307 307 305 305 303 304 306 312 308 296 301 299 297 309 307 307 307 307 300 307 302 302 304 301 297 302 306 305 306 306 306 307 306 306 304 304 302 301 299 297 297
302 304 303 303 303 303 303 303 305 305 306 307 307 302 297 301 306 306 304 301 300 305 304 300 305 299 305 305 303 303 304 300 298 302 306 301 300 310 309 309 310 308 309 308 305 303 303 302 302 300 299 299 298 297
301 303 303 303 303 303 302 302 302 304 304 303 299 297 303 306 306 302 297 296 297 295 301 303 304 301 308 300 300 304 301 301 295 299 299 298 299 306 310 309 310 310 309 308 307 306 305 304 301 299 299 299 299 298
300 302 303 303 302 303 304 304 301 303 301 302 302 304 303 299 296 293 293 296 294 294 302 301 303 305 306 308 301 303 298 300 293 305 299 295 304 308 308 308 308 309 308 306 306 305 304 302 301 300 299 298 298 298
301 302 304 302 302 302 303 304 304 304 303 304 301 296 295 295 289 290 289 291 293 300 302 302 300 304 305 305 301 300 295 295 303 297 295 301 308 308 307 308 307 309 308 306 306 305 304 301 301 300 299 299 299 299
300 300 302 303 302 302 301 301 301 302 301 298 295 289 292 291 293 295 296 298 303 303 302 301 300 299 301 298 299 294 298 299 292 291 293 303 306 306 307 307 307 306 307 306 305 305 302 301 299 299 300 299 299 299
300 300 300 301 302 302 302 301 301 301 301 296 297 289 292 298 299 299 300 300 301 304 303 300 300 300 298 297 299 297 294 291 293 293 300 309 309 308 307 307 307 307 307 306 307 304 302 300 299 299 300 300 300 303
298 298 300 301 301 303 302 303 302 304 301 298 297 293 297 295 296 298 298 299 302 303 304 303 297 296 295 296 293 292 291 290 295 302 307 309 308 308 310 310 308 308 308 307 307 305 303 300 299 299 300 300 303 306
298 297 302 302 303 303 302 301 302 297 297 295 295 299 298 298 297 297 298 298 303 299 296 298 292 292 299 293 292 296 294 298 302 306 310 310 309 309 310 309 308 308 308 308 305 305 302 301 300 299 298 300 304 307
297 302 301 303 302 304 303 302 298 295 292 296 294 297 299 301 299 299 299 301 301 299 297 294 298 294 292 290 293 298 301 304 306 308 308 310 310 309 309 307 308 308 308 308 305 304 303 300 299 299 300 301 304 307
299 302 303 302 302 300 297 297 299 292 294 298 298 299 298 299 301 301 301 301 301 300 299 297 294 292 294 300 300 301 303 306 306 307 309 309 308 306 308 308 308 308 309 308 306 303 303 302 300 300 302 302 304 306
299 301 300 300 300 299 293 296 301 295 293 296 298 296 297 296 298 299 299 300 298 295 291 292 295 299 299 301 303 304 305 307 305 302 303 306 308 308 308 307 307 309 308 308 305 301 302 300 300 300 302 303 304 305
298 302 301 300 302 301 298 297 294 296 296 294 297 297 295 297 295 296 296 299 296 294 294 298 299 303 304 303 305 307 307 306 305 303 303 303 306 307 307 308 309 307 307 306 303 302 302 301 300 301 302 303 306 308
302 301 302 301 297 297 296 299 296 298 294 295 295 295 293 292 293 294 297 294 293 295 298 298 300 301 301 303 305 308 307 306 305 304 300 301 303 305 305 307 305 306 306 305 306 305 305 304 302 302 302 304 303 308
298 301 299 297 292 291 288 299 292 294 289 292 295 291 291 292 296 299 293 295 295 298 299 299 302 304 302 303 303 304 305 305 303 304 302 303 305 306 306 306 306 305 305 306 309 308 306 298 299 302 304 304 306 307
296 297 292 292 291 287 294 291 294 293 292 291 290 288 292 295 298 295 290 295 297 299 298 299 300 300 301 302 300 301 302 304 303 305 306 303 301 302 303 303 306 307 307 308 308 307 306 304 299 300 303 304 305 306
289 289 290 284 292 290 287 288 289 290 288 290 289 290 293 297 291 291 290 295 297 300 302 302 301 300 298 299 300 300 304 302 300 300 303 304 303 302 302 303 304 307 307 307 308 307 306 304 303 301 301 303 305 306
284 289 286 290 290 288 290 286 287 288 290 289 291 294 295 293 287 288 293 298 300 301 301 301 301 300 301 302 302 302 303 305 305 303 303 302 302 301 300 300 300 303 306 307 307 306 306 305 303 302 299 301 294 302
283 287 292 296 296 294 291 293 294 293 289 288 292 291 290 285 286 293 299 301 299 300 302 302 302 300 300 300 302 303 304 306 306 306 308 308 308 307 303 301 301 304 306 306 306 308 307 306 304 303 303 301 305 306
291 291 288 292 293 295 290 290 289 288 291 296 294 288 285 287 289 295 296 300 300 301 301 303 304 304 303 303 303 303 305 306 306 307 307 307 309 309 309 308 307 293 306 308 306 306 309 308 306 305 305 302 303 307
290 293 293 290 292 292 292 291 291 295 298 296 292 290 290 298 299 298 299 299 300 300 299 300 301 301 302 303 304 302 303 304 302 300 299 300 301 304 308 308 307 306 306 306 287 297 310 308 308 307 306 304 305 307
290 295 291 291 289 289 295 298 296 298 298 297 296 295 295 297 300 303 301 300 299 298 298 298 297 298 297 296 298 301 303 304 304 300 299 299 301 305 307 306 306 306 306 307 307 305 291 303 299 307 305 304 303 304
296 296 291 292 291 296 298 298 297 294 293 291 292 289 289 292 298 301 301 301 300 297 296 295 296 297 296 296 296 297 298 302 305 305 305 306 305 307 309 309 308 307 307 307 309 308 307 306 306 305 304 303 302 301
294 292 292 290 292 297 297 292 291 290 291 290 290 290 290 289 288 295 300 300 297 295 292 294 295 295 298 298 299 300 291 300 301 303 306 305 306 308 309 308 307 307 305 306 309 307 307 305 304 304 303 302 300 302
294 294 294 292 291 289 293 291 291 291 293 293 294 295 294 293 291 296 299 302 299 297 295 295 296 298 299 299 299 299 294 300 299 291 289 288 289 298 306 308 309 307 306 307 307 307 306 304 303 302 303 303 300 301
Wind_Speed
8 9 12 15 15 15 15 15 13 14 13 12 11 10 8 8 7 5 5 3 5 8 6 5 3 5 7 4 7 5 5 5 5 8 7 3 6 2 5 9 2 5 4 3 4 8 7 12 4 6 5 7 9 11
8 11 13 14 14 15 14 13 12 13 12 10 10 9 8 6 6 3 5 2 3 6 9 5 4 6 5 8 7 6 6 5 5 5 3 3 3 5 3 6 4 4 6 3 3 2 5 4 7 8 6 8 11 11
8 9 11 13 15 13 11 10 9 11 11 11 10 8 7 7 6 4 6 3 4 7 9 8 4 7 2 5 5 5 5 7 3 4 5 0 4 5 3 3 4 2 9 4 3 5 8 6 10 10 9 9 7 11
6 9 11 12 18 8 6 6 7 7 7 7 7 7 7 7 6 5 6 4 6 5 5 3 3 6 4 3 5 9 7 6 5 6 6 5 5 3 5 4 6 5 3 4 4 7 9 10 8 11 12 13 14 14
6 8 11 12 13 15 4 5 5 6 7 8 8 8 7 7 6 6 6 5 2 6 4 4 7 2 4 4 5 6 6 6 7 6 5 6 5 2 6 2 7 4 5 1 3 7 5 9 8 11 11 12 13 12
5 8 10 11 12 12 14 4 6 7 7 7 8 8 8 9 6 4 4 4 1 3 5 5 3 8 9 4 7 7 6 6 8 7 4 2 4 2 5 3 7 9 5 3 5 3 5 7 10 10 10 13 11 9
5 8 10 12 13 12 11 10 6 7 8 6 6 7 9 10 1 2 5 4 11 5 3 4 3 7 5 6 6 5 6 6 7 7 5 6 3 3 5 9 12 7 5 4 4 3 4 6 7 11 10 12 7 8
4 7 9 12 13 12 13 11 7 10 10 8 11 13 15 16 8 2 4 6 8 2 4 4 4 6 7 7 4 5 5 6 5 6 3 3 6 3 4 9 10 7 6 5 4 5 6 5 6 11 11 7 8 6
7 5 7 10 11 12 15 21 11 12 18 19 19 15 4 3 2 1 3 9 3 2 1 5 4 1 6 5 4 4 3 4 3 6 8 4 6 4 6 10 8 8 5 5 3 2 4 5 8 12 8 8 5 7
8 8 4 7 8 8 11 15 16 16 16 11 2 2 3 2 4 6 3 1 1 2 4 6 7 2 5 5 4 3 3 4 4 6 6 4 6 8 5 7 8 5 6 3 6 6 7 7 9 8 7 5 6 6
7 9 4 5 8 8 7 7 6 4 1 1 2 3 2 3 3 2 1 3 4 5 7 7 11 2 4 4 4 3 3 3 4 3 4 4 8 9 9 9 11 9 7 7 8 8 9 9 7 5 5 6 7 4
6 7 5 5 7 8 9 2 2 2 1 4 6 4 2 0 1 3 5 5 5 5 5 9 8 9 2 2 3 4 0 4 4 2 3 4 6 12 11 13 9 9 8 8 8 10 10 9 6 5 5 6 6 2
7 8 4 5 5 7 8 11 11 9 2 1 3 4 3 3 4 6 8 4 5 5 4 3 5 6 2 1 1 2 4 5 1 4 4 4 8 9 12 11 10 9 9 7 8 11 12 8 7 6 6 7 3 1
7 6 6 4 3 3 4 5 4 3 2 2 4 5 6 5 6 3 2 0 1 1 3 3 4 3 2 4 2 4 3 4 4 5 8 9 11 13 11 7 8 8 8 7 7 12 10 8 6 6 8 3 1 1
7 6 5 3 1 1 3 3 4 3 3 3 3 3 5 2 1 4 2 3 2 3 1 3 3 4 3 3 4 3 4 5 5 6 5 9 13 13 10 7 7 6 8 6 8 13 9 7 6 6 4 2 2 3
9 8 4 4 3 4 6 7 4 4 3 3 4 3 4 5 3 3 1 2 3 3 3 2 3 3 4 3 5 6 4 4 1 6 9 11 11 9 11 7 7 5 9 8 10 11 8 7 6 6 2 2 2 5
6 3 8 6 5 7 7 4 2 4 3 4 3 5 2 0 3 3 4 3 4 4 0 2 4 5 3 4 5 4 5 1 4 7 8 12 12 10 9 9 6 9 9 10 15 9 9 6 6 5 2 1 2 0
3 2 5 6 5 3 3 5 4 5 6 6 4 3 2 1 5 4 4 5 1 1 3 3 3 4 4 5 5 5 2 5 5 8 9 9 9 7 6 8 10 10 9 11 14 9 8 6 6 3 2 1 3 2
5 5 6 3 3 3 4 4 4 4 6 2 4 4 3 4 4 7 6 7 5 2 3 4 5 5 6 3 5 5 5 3 6 8 8 9 7 6 3 7 8 10 10 9 9 7 6 5 5 3 2 2 5 4
6 4 2 3 3 4 4 3 2 5 3 3 3 4 4 4 3 5 6 7 6 4 2 4 5 2 3 6 8 4 8 9 7 7 9 10 11 13 5 6 7 7 8 9 10 9 7 5 4 3 3 4 6 7
4 4 5 5 4 6 4 2 4 2 2 3 3 3 3 4 5 5 5 7 4 3 3 4 6 1 4 6 14 8 10 5 4 4 9 8 7 6 8 8 9 7 6 5 8 9 7 6 5 4 5 6 7 6
2 5 3 5 4 3 3 4 2 4 3 3 4 4 5 5 6 7 6 8 6 6 6 3 5 6 4 6 7 5 13 13 11 5 4 6 6 7 8 8 8 7 7 5 8 7 7 7 6 5 5 5 5 7
4 4 3 3 2 2 6 5 4 3 4 3 3 3 4 3 2 3 4 7 7 7 9 7 9 13 6 4 5 7 5 1 5 8 5 5 3 6 9 9 5 7 6 6 11 10 7 9 7 6 3 5 7 6
2 2 4 4 5 5 3 4 4 3 3 4 4 4 1 1 3 1 4 2 6 6 9 10 8 6 5 3 2 4 4 4 3 4 5 5 4 4 4 3 7 6 5 9 11 10 9 8 9 6 5 6 7 5
2 4 4 4 5 5 5 5 6 4 5 3 2 1 2 2 3 4 3 2 4 5 4 4 4 2 4 5 5 7 8 7 7 7 6 5 6 5 6 6 5 6 6 7 12 11 9 9 7 7 6 7 8 8
2 6 3 6 5 4 2 3 4 4 3 3 3 3 2 1 3 4 1 4 4 4 3 4 2 2 2 3 1 3 4 4 7 6 5 9 8 7 7 7 7 6 6 6 9 13 12 10 10 9 8 8 7 7
4 4 5 4 1 2 4 4 4 2 4 0 1 2 1 2 3 1 5 5 5 4 4 3 3 3 3 5 5 2 2 5 6 7 8 9 8 6 8 8 8 6 9 9 7 13 13 12 11 9 10 8 10 11
4 3 2 3 2 3 6 4 3 2 1 2 1 3 4 2 2 3 2 6 6 5 4 2 2 3 4 5 6 6 5 5 7 8 7 8 8 9 7 7 6 2 6 9 8 8 14 12 11 10 9 10 10 11
6 4 3 5 6 5 4 2 3 3 3 3 1 2 1 1 3 4 5 4 2 2 4 5 3 4 4 4 5 6 6 4 8 11 12 9 8 8 8 9 6 4 6 8 8 5 14 11 11 10 9 9 9 8
6 4 5 5 6 4 4 3 4 4 3 1 1 3 4 6 3 2 1 2 4 5 5 3 3 5 5 5 7 6 6 8 8 7 7 9 9 10 9 10 10 9 9 10 10 9 11 11 9 7 6 6 7 7
2 1 5 5 6 5 5 5 3 2 1 1 2 1 1 3 3 4 5 4 2 2 3 3 3 3 4 5 6 8 8 6 9 13 13 9 10 11 11 10 10 9 8 11 13 12 11 10 9 8 9 10 11 10
3 4 4 6 5 4 4 3 2 1 2 2 3 4 3 3 3 2 1 1 2 2 2 5 6 6 6 5 6 6 6 6 6 8 13 10 11 11 11 8 4 3 5 7 13 13 14 11 9 9 10 11 9 12
4 4 5 4 3 3 2 2 4 4 7 4 6 8 8 5 2 3 3 2 1 3 6 7 6 6 7 7 7 6 7 6 8 3 4 3 3 6 6 9 9 17 26 12 13 13 17 15 11 11 11 10 8 9
Wind_Direction
305 308 302 293 289 283 282 278 260 253 243 248 247 250 249 264 301 307 312 59 296 292 314 25 353 307 306 296 305 12 294 220 253 250 270 319 282 7 283 311 72 265 201 312 281 267 240 348 41 38 30 352 335 359
305 298 294 305 301 286 277 270 248 229 221 234 237 237 239 245 266 310 272 281 264 265 306 332 305 310 306 320 327 297 302 303 0 344 310 330 292 299 21 294 353 333 40 325 105 108 213 79 54 60 24 358 7 358
312 332 335 325 322 288 270 260 234 212 209 226 213 218 229 229 246 250 309 295 237 266 278 251 315 142 234 239 247 270 37 351 34 345 312 282 270 333 309 303 291 113 12 303 347 105 53 31 62 45 12 27 13 23
348 356 342 338 344 312 248 230 211 207 217 215 207 207 216 213 233 256 277 315 303 305 285 71 302 260 118 259 245 231 267 318 284 280 284 294 289 342 307 296 265 103 201 28 326 39 84 61 48 34 9 12 10 15
7 0 356 352 353 6 283 225 218 211 203 205 194 190 197 193 210 261 287 278 337 312 302 324 305 255 164 228 244 208 223 255 279 243 236 253 271 237 271 302 297 39 29 311 62 60 358 66 41 38 16 14 29 20
20 9 5 2 359 1 9 260 213 195 198 174 179 177 175 165 192 215 238 209 312 264 289 268 127 220 218 226 221 217 219 229 249 276 268 257 96 319 293 265 92 103 79 24 65 40 38 43 80 42 25 39 39 35
29 20 12 8 4 360 0 1 208 170 155 152 149 151 149 147 113 303 4 1 322 294 255 288 262 188 235 184 209 209 204 229 240 258 235 281 124 184 264 274 124 103 109 130 71 332 96 46 29 51 47 68 52 45
19 24 16 12 9 4 15 352 175 152 139 126 108 107 110 98 97 27 3 332 316 3 284 266 269 187 189 204 186 197 194 218 214 253 240 254 142 216 257 117 110 129 122 122 101 70 76 61 36 70 73 48 41 45
18 11 22 15 14 21 25 27 120 124 122 118 116 121 101 32 95 139 280 289 326 72 239 264 274 298 173 224 174 193 223 225 268 221 241 235 228 218 274 147 141 155 183 134 148 160 58 40 57 77 58 40 56 64
16 6 31 22 21 26 24 33 58 81 106 128 188 114 84 49 127 163 193 118 24 221 221 256 281 253 226 154 196 179 215 230 242 233 238 244 240 116 126 122 114 115 112 165 251 73 35 31 62 78 64 64 66 65
17 15 36 43 36 32 13 21 37 48 120 80 72 75 84 316 224 356 90 204 189 220 205 240 250 214 288 205 174 217 234 231 234 215 210 230 226 152 158 129 115 107 98 83 81 73 61 56 64 91 87 85 76 62
18 8 359 58 45 34 25 356 190 35 34 100 103 103 128 337 128 190 192 171 224 244 197 217 199 217 212 204 113 250 247 252 245 174 231 235 108 128 144 126 118 132 126 97 84 79 76 73 74 88 95 95 80 49
19 8 62 75 53 41 38 51 76 103 142 82 134 133 179 185 205 212 181 187 208 221 231 197 167 139 194 160 243 270 240 230 177 233 213 79 131 122 129 132 128 143 128 129 110 98 89 82 81 93 99 86 87 17
12 6 22 38 43 42 40 19 353 308 283 235 156 158 225 176 223 220 16 353 56 76 159 191 139 137 218 174 182 235 264 256 243 232 226 138 138 135 147 149 157 152 131 111 115 98 92 96 99 100 92 103 84 249
349 339 306 257 233 289 305 293 299 266 269 249 210 199 216 245 143 149 93 131 68 3 83 231 170 168 167 183 223 220 221 235 243 240 93 140 140 149 147 149 140 158 142 116 88 98 99 106 108 108 98 61 354 229
335 309 206 147 220 249 282 267 233 248 236 249 241 233 186 207 158 178 121 73 3 337 323 318 189 180 201 232 208 218 224 239 166 84 120 132 141 146 146 165 162 169 107 102 92 107 98 120 119 113 124 39 305 295
322 262 153 165 203 248 258 269 240 234 268 260 212 234 264 176 192 88 169 113 36 280 81 323 230 196 231 215 209 238 233 352 134 122 124 145 156 154 154 166 165 114 114 106 103 106 101 115 126 126 165 95 229 258
260 149 174 171 228 223 228 214 244 208 231 230 233 228 230 202 127 151 118 92 53 153 162 248 297 226 227 238 242 197 154 161 133 125 138 151 148 155 154 161 132 132 122 100 108 120 122 137 128 122 193 335 242 214
326 336 137 144 311 296 229 207 240 265 232 205 185 202 196 196 144 140 143 110 98 63 300 255 243 238 230 335 321 207 144 47 99 109 116 99 62 322 222 128 125 118 117 102 110 120 107 114 126 157 168 228 198 194
270 273 271 301 291 269 245 168 263 279 323 317 265 220 221 228 199 179 139 145 147 126 217 237 232 248 283 292 267 241 128 132 130 148 137 150 182 202 145 128 111 120 114 127 113 121 118 119 136 165 194 199 204 224
168 172 216 256 248 236 286 262 245 282 299 267 271 247 238 240 220 195 191 167 171 229 228 236 292 321 80 294 261 125 95 113 159 166 149 157 169 126 111 133 161 154 166 156 131 139 140 138 160 172 197 211 225 272
166 188 254 199 254 242 264 258 138 254 253 249 256 236 244 227 219 227 227 202 209 210 241 166 262 290 228 267 56 103 140 150 191 200 72 153 178 167 160 185 183 161 166 160 132 131 130 130 150 174 206 211 255 249
229 220 219 232 309 34 257 240 252 239 243 262 238 233 242 234 31 273 227 220 213 189 228 217 195 208 278 157 100 88 31 183 149 152 154 179 216 167 196 175 202 182 163 154 125 129 125 122 143 169 198 225 226 240
223 254 233 217 195 244 213 224 236 250 272 247 267 233 112 24 290 259 263 287 298 241 209 194 212 212 182 260 229 184 182 256 251 229 196 191 219 260 281 253 144 168 181 123 126 126 138 131 130 165 203 207 213 222
201 274 159 255 242 244 227 213 207 221 240 295 283 332 57 330 249 217 220 159 227 309 63 22 329 276 268 226 210 215 224 227 224 238 241 247 217 219 220 236 184 177 155 150 134 139 136 140 141 159 208 208 201 227
257 205 183 226 192 228 225 245 207 258 267 247 170 168 182 242 277 263 253 50 100 105 90 94 326 323 278 326 231 298 323 305 324 306 262 211 225 239 241 231 220 199 180 177 148 146 152 146 150 173 185 217 240 259
249 232 193 235 227 240 266 289 280 244 259 153 152 163 77 319 247 1 71 61 73 45 19 22 339 309 307 317 312 287 276 296 274 288 316 334 318 276 227 226 233 226 182 190 183 153 156 155 158 180 173 204 223 228
283 292 215 207 251 265 283 286 287 321 67 297 322 176 170 186 276 92 37 30 28 356 318 292 265 283 274 266 251 256 238 247 237 250 270 275 275 286 289 290 245 314 202 178 196 177 152 160 161 176 186 187 215 228
248 232 212 253 247 244 234 246 295 55 20 16 308 328 249 276 23 16 33 18 321 264 265 262 303 311 281 254 240 247 253 221 240 231 230 241 238 238 245 262 239 196 181 130 76 91 152 158 158 169 186 185 215 211
232 214 236 286 284 295 65 12 356 7 4 38 316 321 315 287 341 66 240 288 350 349 327 295 284 281 277 295 283 241 241 240 225 221 232 231 245 252 239 226 235 205 205 172 137 110 104 118 122 131 151 165 202 211
322 248 273 286 303 43 49 16 36 39 39 357 4 220 226 297 299 239 212 229 347 307 294 294 268 255 257 252 253 267 258 240 227 234 238 242 245 248 270 242 221 220 191 166 145 158 154 157 168 174 193 196 202 209
234 269 339 319 339 73 43 40 5 299 196 219 214 188 199 207 238 223 203 71 314 312 319 303 288 264 249 244 252 242 219 267 276 250 219 230 239 252 265 256 125 23 326 205 158 165 164 166 173 197 204 199 206 204
335 335 329 8 11 317 242 226 235 231 211 227 216 195 202 209 198 122 166 186 330 339 328 296 284 276 253 242 249 252 232 231 236 220 242 284 306 255 245 259 171 174 222 190 160 159 161 169 181 197 205 204 198 205